Location: Newark
(55.7167°N, 12.5667°E)
Time: 09:35:43
(UTC+00:00)

N. Korean satellite - Pass Details

Date: 13 December 2019
Orbit: 454 x 507 km, 97.2° (Epoch: 26 January)

Event Time Altitude Azimuth Distance (km) Brightness Sun altitude
Rises 05:14:21 0° 14° (NNE) 2,560 10.2 -17.5°
Reaches altitude 10° 05:16:27 10° 16° (NNE) 1,666 9.3 -17.2°
Maximum altitude 05:20:02 81° 104° (ESE) 486 6.5 -16.7°
Drops below altitude 10° 05:23:31 10° 192° (SSW) 1,622 9.3 -16.2°
Sets 05:25:32 0° 193° (SSW) 2,486 10.2 -16.0°
